Flag for Spain Weather past 2 weeks in Valladolid, Spain

Now
57 °F

Rain. Broken clouds.


Feels Like: 55 °F
Forecast: 46 / 59 °F
Wind: 9 mph from Southwest

Location: Valladolid / Villanubla

Current Time: Apr 25, 2015 at 3:32:00 PM

Latest Report: Apr 25, 2015 at 3:00 PM


Visibility: N/A

Pressure: 29.95 "Hg

Humidity: 82%

Dew point: 52 °F

Location of ValladolidLocation

Historic Weather in Valladolid — Graph

°F

Valladolid temperature yesterday

Maximum temperature yesterday: 64 °F (at 3:00 PM)
Minimum temperature yesterday: 46 °F (at 7:00 AM)
Average temperature yesterday: 58 °F

Past Weeks' High & Low Weather Summary

 TemperatureHumidityPressure
High73 °F (Apr 14, 4:00 PM)100% (Apr 11, 7:00 AM)30.36 "Hg (Apr 11, 7:00 AM)
Low36 °F (Apr 20, 7:00 AM)25% (Apr 14, 4:00 PM)29.92 "Hg (Apr 16, 7:00 AM)
Average55 °F68%30.10 "Hg
* Reported Apr 10 2:00 PM — Apr 25 2:30 PM, Valladolid, Weather by CustomWeather, © 2015

Note: Actual official high and low records may vary slightly from our data, if they occured in-between our weather recording intervals... More about our weather records

Advertising

Valladolid weather history for previous 24 hours

 ConditionsComfort  
Time TempWeatherWind HumidityBarometerVisibility
2:30 PM
Sat, Apr 25
57 °FRain. Broken clouds.12 mph72%29.95 "HgN/A
2:00 PM57 °FBroken clouds.12 mph72%29.98 "HgN/A
1:30 PM57 °FBroken clouds.12 mph72%29.98 "HgN/A
1:00 PM55 °FBroken clouds.13 mph77%29.98 "HgN/A
12:30 PM57 °FBroken clouds.9 mph72%29.98 "HgN/A
12:00 PM55 °FBroken clouds.10 mph77%29.98 "HgN/A
11:30 AM54 °FPartly sunny.13 mph82%29.98 "HgN/A
11:00 AM54 °FPartly sunny.12 mph88%29.98 "HgN/A
10:30 AM52 °FPartly sunny.12 mph94%30.01 "HgN/A
10:00 AM52 °FPartly sunny.12 mph88%30.01 "HgN/A
9:30 AM50 °FPartly sunny.10 mph94%30.01 "HgN/A
9:00 AM50 °FPartly sunny.6 mph94%29.98 "HgN/A
8:30 AM50 °FPartly sunny.7 mph94%29.98 "HgN/A
8:00 AM48 °FPassing clouds.3 mph100%29.98 "Hg6 mi
7:30 AM48 °FPassing clouds.2 mph94%29.98 "Hg5 mi
7:00 AM48 °FPassing clouds.2 mph94%29.98 "HgN/A
9:30 PM
Fri, Apr 24
54 °FScattered clouds.7 mph72%29.95 "HgN/A
9:00 PM55 °FLight rain. Scattered clouds.9 mph67%29.95 "HgN/A
8:30 PM57 °FPassing clouds.12 mph59%29.98 "HgN/A
8:00 PM59 °FPassing clouds.10 mph51%29.95 "HgN/A
7:30 PM61 °FPassing clouds.13 mph48%29.95 "HgN/A
7:00 PM61 °FPassing clouds.12 mph39%29.95 "HgN/A
6:30 PM61 °FPassing clouds.10 mph52%29.95 "HgN/A
6:00 PM63 °FPassing clouds.12 mph45%29.95 "HgN/A
5:30 PM64 °FPassing clouds.14 mph46%29.98 "HgN/A
5:00 PM63 °FPassing clouds.12 mph49%29.98 "HgN/A
4:30 PM63 °FPassing clouds.12 mph49%29.98 "HgN/A
4:00 PM63 °FPassing clouds.13 mph49%29.98 "HgN/A
3:30 PM64 °FPassing clouds.8 mph37%29.98 "HgN/A
3:00 PM64 °FPassing clouds.9 mph49%30.01 "HgN/A
Weather by CustomWeather, © 2015

See weather overviewHow to use our weather pages